Weather History for Natchez, MS

Change the Weather History Date:

Sunday, January 6, 2013

  Actual Average Record
Temperature  
Mean Temperature 42 °F -  
Max Temperature 51 °F 60 °F 80 °F (1946)
Min Temperature 33 °F 38 °F 19 °F (1942)
Degree Days  
Heating Degree Days 23    
Moisture  
Dew Point 41 °F    
Average Humidity 87    
Maximum Humidity 100    
Minimum Humidity 62    
Precipitation  
Precipitation 0.03 in - - ()
Sea Level Pressure  
Sea Level Pressure 30.28 in    
Wind  
Wind Speed 7 mph (NNE)    
Max Wind Speed 14 mph    
Max Gust Speed 18 mph    
Visibility 9 miles    
Events      
Averages and records for this station are not official NWS values.
T = Trace of Precipitation, MM = Missing Value Source: NWS Daily Summary

Daily Weather History Graph

Daily Weather History Graph

Search for Another Location

Airport:

Trip Planner

Search our weather history database for the weather conditions in past years. The results will help you decide how hot, cold, wet, or windy it might be!

Date:

Astronomy

Jan. 06, 2013 Rise Set
Actual Time 7:05 AM CST 5:16 PM CST
Civil Twilight 6:39 AM CST 5:43 PM CST
Nautical Twilight 6:08 AM CST 6:13 PM CST
Astronomical Twilight 5:39 AM CST 6:43 PM CST
Moon 1:28 AM CST (1/6) 12:37 PM CST (1/6)
Length of Visible Light 11h 04m
Length of Day
10h 11m
Waning Crescent, 33% of the Moon is Illuminated
Jan 6
Waning Crescent
Jan 11
New
Jan 18
First Quarter
Jan 26
Full
Feb 3
Last Quarter

Hourly Weather History & Observations

Time (CST) Temp. Windchill Dew Point Humidity Pressure Visibility Wind Dir Wind Speed Gust Speed Precip Events Conditions
12:15 AM 42.8 °F 39.3 °F 42.8 °F 100% 30.24 in 9.0 mi NE 5.8 mph - N/A   Overcast
12:35 AM 42.8 °F 40.1 °F 42.8 °F 100% 30.24 in 9.0 mi North 4.6 mph - N/A   Overcast
12:55 AM 42.8 °F 39.3 °F 42.8 °F 100% 30.25 in 10.0 mi North 5.8 mph - N/A   Overcast
1:15 AM 42.8 °F 39.3 °F 42.8 °F 100% 30.25 in 10.0 mi NNE 5.8 mph - N/A   Overcast
1:35 AM 42.8 °F 38.6 °F 42.8 °F 100% 30.26 in 10.0 mi NNE 6.9 mph - N/A   Overcast
1:55 AM 42.8 °F 39.3 °F 42.8 °F 100% 30.26 in 10.0 mi North 5.8 mph - N/A   Overcast
2:15 AM 42.8 °F 38.6 °F 42.8 °F 100% 30.25 in 10.0 mi North 6.9 mph - 0.01 in   Overcast
2:35 AM 42.8 °F 38.6 °F 42.8 °F 100% 30.26 in 7.0 mi North 6.9 mph - 0.01 in   Overcast
2:55 AM 42.8 °F 39.3 °F 41.0 °F 93% 30.26 in 4.0 mi North 5.8 mph - 0.01 in   Overcast
3:15 AM 42.8 °F 38.6 °F 41.0 °F 93% 30.26 in 3.0 mi NNE 6.9 mph - N/A   Overcast
3:35 AM 42.8 °F 38.0 °F 42.8 °F 100% 30.26 in 4.0 mi NNE 8.1 mph - 0.01 in   Overcast
3:55 AM 42.8 °F 38.0 °F 42.8 °F 100% 30.25 in 4.0 mi North 8.1 mph - 0.01 in   Overcast
4:15 AM 42.8 °F 37.5 °F 41.0 °F 93% 30.25 in 5.0 mi North 9.2 mph - N/A   Overcast
4:35 AM 42.8 °F 37.0 °F 42.8 °F 100% 30.25 in 4.0 mi NNE 10.4 mph - N/A   Overcast
4:55 AM 42.8 °F 38.6 °F 41.0 °F 93% 30.25 in 4.0 mi NNE 6.9 mph - N/A   Overcast
5:15 AM 42.8 °F 38.6 °F 41.0 °F 93% 30.25 in 5.0 mi NNE 6.9 mph - 0.01 in   Overcast
5:35 AM 42.8 °F 39.3 °F 41.0 °F 93% 30.26 in 7.0 mi NNE 5.8 mph - 0.01 in   Overcast
5:55 AM 42.8 °F 39.3 °F 41.0 °F 93% 30.26 in 7.0 mi NNE 5.8 mph - 0.01 in   Overcast
6:15 AM 42.8 °F 38.0 °F 42.8 °F 100% 30.27 in 5.0 mi North 8.1 mph - N/A   Overcast
6:35 AM 42.8 °F 37.5 °F 42.8 °F 100% 30.27 in 5.0 mi NNE 9.2 mph - N/A   Overcast
6:55 AM 42.8 °F 38.0 °F 42.8 °F 100% 30.28 in 9.0 mi North 8.1 mph - N/A   Overcast
7:15 AM 42.8 °F 38.6 °F 42.8 °F 100% 30.29 in 10.0 mi North 6.9 mph - N/A   Overcast
7:36 AM 42.8 °F 38.0 °F 42.8 °F 100% 30.29 in 10.0 mi North 8.1 mph - N/A   Overcast
7:55 AM 42.8 °F 38.6 °F 41.0 °F 93% 30.29 in 10.0 mi NNE 6.9 mph - N/A   Overcast
8:15 AM 42.8 °F 38.6 °F 42.8 °F 100% 30.30 in 10.0 mi NNE 6.9 mph - N/A   Overcast
8:35 AM 42.8 °F 37.0 °F 42.8 °F 100% 30.30 in 10.0 mi NNE 10.4 mph - N/A   Overcast
8:55 AM 44.6 °F 40.7 °F 42.8 °F 93% 30.31 in 10.0 mi NNE 6.9 mph - N/A   Overcast
9:15 AM 44.6 °F 40.2 °F 42.8 °F 93% 30.31 in 10.0 mi NNE 8.1 mph - N/A   Mostly Cloudy
9:35 AM 46.4 °F 42.4 °F 44.6 °F 93% 30.32 in 10.0 mi NE 8.1 mph - N/A   Mostly Cloudy
9:55 AM 46.4 °F 41.9 °F 42.8 °F 87% 30.32 in 10.0 mi North 9.2 mph - N/A   Mostly Cloudy
10:15 AM 46.4 °F 41.9 °F 39.2 °F 76% 30.32 in 10.0 mi NNE 9.2 mph - N/A   Scattered Clouds
10:35 AM 46.4 °F 40.4 °F 42.8 °F 87% 30.31 in 10.0 mi North 13.8 mph 18.4 mph N/A   Partly Cloudy
10:55 AM 48.2 °F - 42.8 °F 82% 30.31 in 10.0 mi North 11.5 mph - N/A   Mostly Cloudy
11:15 AM 48.2 °F - 39.2 °F 71% 30.31 in 10.0 mi North 12.7 mph - N/A   Mostly Cloudy
11:35 AM 48.2 °F - 42.8 °F 82% 30.29 in 10.0 mi North 8.1 mph - N/A   Scattered Clouds
11:55 AM 48.2 °F - 42.8 °F 82% 30.29 in 10.0 mi North 13.8 mph - N/A   Mostly Cloudy
12:15 PM 48.2 °F - 41.0 °F 76% 30.28 in 10.0 mi North 9.2 mph 16.1 mph N/A   Scattered Clouds
12:55 PM 51.8 °F - 42.8 °F 71% 30.26 in 10.0 mi NE 5.8 mph - N/A   Clear
1:15 PM 51.8 °F - 41.0 °F 67% 30.26 in 10.0 mi North 10.4 mph - N/A   Clear
1:35 PM 51.8 °F - 41.0 °F 67% 30.25 in 10.0 mi North 8.1 mph - N/A   Clear
1:55 PM 51.8 °F - 42.8 °F 71% 30.24 in 10.0 mi North 9.2 mph - N/A   Clear
2:15 PM 51.8 °F - 41.0 °F 67% 30.24 in 10.0 mi NNW 11.5 mph - N/A   Clear
2:35 PM 51.8 °F - 42.8 °F 71% 30.24 in 10.0 mi NNW 8.1 mph - N/A   Clear
2:55 PM 51.8 °F - 42.8 °F 71% 30.24 in 10.0 mi North 11.5 mph - N/A   Clear
3:15 PM 51.8 °F - 41.0 °F 67% 30.24 in 10.0 mi North 9.2 mph 17.3 mph N/A   Clear
3:35 PM 51.8 °F - 39.2 °F 62% 30.24 in 10.0 mi North 9.2 mph - N/A   Clear
3:55 PM 51.8 °F - 39.2 °F 62% 30.25 in 10.0 mi North 10.4 mph - N/A   Clear
4:35 PM 50.0 °F - 39.2 °F 66% 30.26 in 10.0 mi North 9.2 mph - N/A   Clear
4:55 PM 48.2 °F - 41.0 °F 76% 30.26 in 10.0 mi NNE 6.9 mph - N/A   Clear
5:15 PM 48.2 °F - 39.2 °F 71% 30.26 in 10.0 mi North 6.9 mph - N/A   Clear
5:35 PM 46.4 °F 44.3 °F 39.2 °F 76% 30.27 in 10.0 mi North 4.6 mph - N/A   Clear
5:55 PM 46.4 °F 45.2 °F 39.2 °F 76% 30.27 in 10.0 mi NNE 3.5 mph - N/A   Clear
6:15 PM 44.6 °F 42.2 °F 39.2 °F 81% 30.28 in 10.0 mi NNE 4.6 mph - N/A   Clear
6:35 PM 44.6 °F 42.2 °F 39.2 °F 81% 30.28 in 10.0 mi NNE 4.6 mph - N/A   Clear
6:55 PM 44.6 °F 43.1 °F 39.2 °F 81% 30.29 in 10.0 mi NE 3.5 mph - N/A   Clear
7:15 PM 42.8 °F 41.1 °F 37.4 °F 81% 30.29 in 10.0 mi NE 3.5 mph - N/A   Clear
7:35 PM 39.2 °F 37.0 °F 37.4 °F 93% 30.29 in 10.0 mi North 3.5 mph - N/A   Clear
7:55 PM 39.2 °F - 37.4 °F 93% 30.30 in 10.0 mi Calm Calm - N/A   Clear
8:15 PM 39.2 °F - 37.4 °F 93% 30.31 in 10.0 mi Calm Calm - N/A   Clear
8:35 PM 39.2 °F - 37.4 °F 93% 30.31 in 10.0 mi Calm Calm - N/A   Clear
9:15 PM 39.2 °F - 37.4 °F 93% 30.32 in 10.0 mi Calm Calm - N/A   Clear
9:55 PM 35.6 °F - 33.8 °F 93% 30.32 in 10.0 mi Calm Calm - N/A   Clear
10:15 PM 35.6 °F - 33.8 °F 93% 30.32 in 6.0 mi Calm Calm - N/A   Clear
10:35 PM 35.6 °F - 33.8 °F 93% 30.32 in 10.0 mi Calm Calm - N/A   Clear
10:55 PM 35.6 °F - 33.8 °F 93% 30.32 in 10.0 mi Calm Calm - N/A   Clear
11:35 PM 33.8 °F 30.8 °F 33.8 °F 100% 30.31 in 10.0 mi ENE 3.5 mph - N/A   Clear
11:55 PM 35.6 °F 32.8 °F 33.8 °F 93% 30.31 in 10.0 mi ENE 3.5 mph - N/A   Clear